Weather History for Ogden, UT

Change the Weather History Date:

Sunday, March 17, 2013

  Actual Average Record
Temperature  
Mean Temperature 41 °F -  
Max Temperature 48 °F 52 °F 72 °F (2007)
Min Temperature 34 °F 30 °F 18 °F (1951)
Degree Days  
Heating Degree Days 24    
Moisture  
Dew Point 22 °F    
Average Humidity 47    
Maximum Humidity 67    
Minimum Humidity 30    
Precipitation  
Precipitation 0.00 in - - ()
Sea Level Pressure  
Sea Level Pressure 29.87 in    
Wind  
Wind Speed 9 mph (NNW)    
Max Wind Speed 22 mph    
Max Gust Speed 30 mph    
Visibility 10 miles    
Events Rain    
Averages and records for this station are not official NWS values.
T = Trace of Precipitation, MM = Missing Value Source: NWS Daily Summary

Daily Weather History Graph

Daily Weather History Graph

Search for Another Location

Airport:

Trip Planner

Search our weather history database for the weather conditions in past years. The results will help you decide how hot, cold, wet, or windy it might be!

Date:

Astronomy

Mar. 17, 2013 Rise Set
Actual Time 7:35 AM MDT 7:37 PM MDT
Civil Twilight 7:08 AM MDT 8:04 PM MDT
Nautical Twilight 6:36 AM MDT 8:36 PM MDT
Astronomical Twilight 6:03 AM MDT 9:09 PM MDT
Moon 10:48 AM MDT (3/17) 12:51 AM MDT (3/17)
Length of Visible Light 12h 56m
Length of Day
12h 01m
Waxing Crescent, 32% of the Moon is Illuminated
Mar 17
Waxing Crescent
Mar 19
First Quarter
Mar 27
Full
Apr 2
Last Quarter
Apr 10
New

Hourly Weather History & Observations

Time (MDT) Temp. Windchill Dew Point Humidity Pressure Visibility Wind Dir Wind Speed Gust Speed Precip Events Conditions
12:53 AM 48.9 °F - 27.0 °F 43% 29.73 in 10.0 mi WSW 10.4 mph - 0.00 in   Overcast
1:53 AM 46.0 °F 41.9 °F 34.0 °F 63% 29.75 in 9.0 mi West 8.1 mph 26.5 mph 0.00 in Rain Light Rain
2:53 AM 46.9 °F - 34.0 °F 61% 29.73 in 10.0 mi Calm Calm - 0.00 in   Overcast
3:53 AM 45.0 °F 42.6 °F 33.1 °F 63% 29.75 in 10.0 mi North 4.6 mph - N/A   Mostly Cloudy
4:53 AM 43.0 °F 40.3 °F 32.0 °F 65% 29.75 in 10.0 mi NE 4.6 mph - N/A   Clear
5:53 AM 44.1 °F 39.5 °F 28.9 °F 55% 29.77 in 10.0 mi WNW 8.1 mph - N/A   Mostly Cloudy
6:53 AM 44.1 °F 38.6 °F 27.0 °F 51% 29.78 in 10.0 mi WNW 10.4 mph - N/A   Overcast
7:53 AM 39.0 °F 35.7 °F 28.9 °F 67% 29.80 in 10.0 mi North 4.6 mph - N/A   Mostly Cloudy
8:53 AM 39.9 °F - 27.0 °F 60% 29.82 in 10.0 mi Calm Calm - N/A   Scattered Clouds
9:53 AM 42.1 °F 35.2 °F 27.0 °F 55% 29.85 in 10.0 mi NNW 12.7 mph 19.6 mph N/A   Partly Cloudy
10:53 AM 43.0 °F 34.0 °F 23.0 °F 45% 29.85 in 10.0 mi NW 21.9 mph 29.9 mph N/A   Mostly Cloudy
11:53 AM 46.0 °F 38.3 °F 27.0 °F 47% 29.86 in 10.0 mi NNW 20.7 mph 26.5 mph N/A   Mostly Cloudy
12:53 PM 44.1 °F 36.5 °F 25.0 °F 47% 29.89 in 10.0 mi NNW 17.3 mph 26.5 mph N/A   Scattered Clouds
1:53 PM 41.0 °F 32.5 °F 21.0 °F 45% 29.92 in 10.0 mi NNW 17.3 mph - 0.00 in   Overcast
2:53 PM 42.1 °F 33.3 °F 21.0 °F 43% 29.91 in 10.0 mi North 19.6 mph - N/A   Overcast
3:53 PM 44.1 °F 36.8 °F 17.1 °F 34% 29.91 in 10.0 mi North 16.1 mph 24.2 mph N/A   Mostly Cloudy
4:53 PM 44.1 °F 36.8 °F 15.1 °F 31% 29.91 in 10.0 mi North 16.1 mph 25.3 mph N/A   Clear
5:53 PM 43.0 °F 35.7 °F 12.9 °F 30% 29.92 in 10.0 mi North 15.0 mph - N/A   Clear
6:53 PM 41.0 °F 33.9 °F 12.0 °F 31% 29.94 in 10.0 mi NNW 12.7 mph - N/A   Clear
7:53 PM 37.9 °F 33.5 °F 12.0 °F 35% 29.97 in 10.0 mi North 5.8 mph - N/A   Clear
8:53 PM 35.1 °F - 12.0 °F 39% 29.99 in 10.0 mi Calm Calm - N/A   Clear
9:53 PM 34.0 °F 31.0 °F 10.0 °F 37% 29.99 in 10.0 mi North 3.5 mph - N/A   Clear
10:53 PM 35.1 °F 31.0 °F 10.9 °F 37% 29.99 in 10.0 mi NE 4.6 mph - N/A   Overcast
11:53 PM 35.1 °F 30.1 °F 14.0 °F 42% 29.99 in 10.0 mi SSW 5.8 mph - N/A   Overcast